www.pogodaiklimat.ru

Погода и климат >> Архив погоды >> Франция >> Анси


ПОГОДА в Анси

  • Прогноз погоды в Анси
  • Монитор погоды в Анси

АРХИВ ПОГОДЫ в Анси

Время (UTC), дата Ветер
(напр.,м/с)
 
Видим.   Явления Облачность Т
(С)
Тd
(С)
f
(%)
Тe
(С)
Тes
(С)
Комфортность P
(гПа)
Po
(гПа)
Тmin
(С)
Tmax
(С)
R
(мм)
R24
(мм)
S
(см)
22 10.06 С 1 45 км 10/9 360 м
[]
+12.5 +11.9 96 +13 +13 1013.2 960.1
23 10.06 С 1 30 км 10/4 120 м
[]
+12.0 +11.4 96 +13 +13 1013.1 959.9
00 11.06 СЗ 1
{4}
40 км 10/10 300 м
[]
+11.9 +11.1 95 +12 +12 1012.9 959.7 0
01 11.06 СЗ 1 60 км 10/10 480 м
[]
+11.4 +9.6 89 +11 +11 1012.8 959.5 0.2
02 11.06 ЮЗ 1 27 км 10/10 480 м
[]
+10.9 +9.7 92 +10 +10 1012.6 959.2
03 11.06 ЮЗ 2-2
{2}
9000 м слаб. морось 10/10 300 м
[]
+10.4 +9.6 95 +9 +9 1012.6 959.1 0.2 0
04 11.06 ЮЗ 1 5000 м слаб. морось 10/10 270 м
[]
+9.6 +9.1 97 +9 +9 1012.5 958.9 0.2
05 11.06 С 1-1
{1}
5000 м 10/10 420 м
[]
+9.9 +9.3 96 +10 +10 1012.2 958.7 0.0
06 11.06 СВ 1
{2}
45 км 10/10 100 м
[]
+10.5 +9.6 94 +11 +11 1011.8 958.4 +9.6 +13.6 0.2 0
07 11.06 В 1 30 км слаб. дождь 10/10 240 м
[]
+10.9 +10.0 94 +11 +11 1011.6 958.3 0.2
08 11.06 ЮЗ 1 11 км слаб. дождь 10/4 300 м
[]
+11.7 +9.9 89 +12 +16 1011.7 958.5 0.4
09 11.06 З 1
{5}
15 км слаб. дождь 10/10 300 м
[]
+11.3 +10.2 93 +12 +14 1012.2 958.9 1 0
10 11.06 З 1 9000 м слаб. дождь 10/9 240 м
[]
+12.1 +10.5 90 +13 +14 1012.1 959.0 0.4
11 11.06 ЮЗ 1 8000 м слаб. дождь 10/8 540 м
[]
+12.0 +11.1 94 +12 +14 1012.2 959.1 1
12 11.06 СЗ 1
{3}
18 км слаб. дождь 10/10 200 м
[]
+13.3 +11.4 88 +14 +15 1011.4 958.6 2 0
13 11.06 З 1 27 км слаб. морось 10/10 270 м
[]
+12.6 +11.3 92 +13 +13 1011.6 958.6 0.2
14 11.06 З 1 12 км слаб. морось 10/10 450 м
[]
+12.7 +11.4 92 +13 +13 1011.9 958.9 0.0
15 11.06 СЗ 1
{4}
9000 м слаб. дождь 10/10 600 м
[]
+12.7 +11.4 92 +13 +15 1012.1 959.1 0.8 0
16 11.06 СВ 1 30 км слаб. морось 10/9 270 м
[]
+13.2 +11.8 91 +14 +14 1011.6 958.7 0.2
17 11.06 ЮЗ 1 55 км 10/6 330 м
[]
+13.2 +11.6 90 +14 +15 1011.8 958.9 0.0
18 11.06 З 1
{4}
29 км слаб. дождь 10/10 1000 м
[]
+12.6 +11.3 92 +13 +14 1011.7 958.7 +10.5 +13.3 0.2 0
19 11.06 З 1 5000 м слаб. дождь 10/6 1200 м
[]
+12.1 +11.0 93 +13 +13 1012.0 958.9 1
20 11.06 З 1 5000 м слаб. дождь 10/10 870 м
[]
+11.5 +10.7 95 +12 +12 1012.6 959.4 3
21 11.06 С 1
{2}
7000 м слаб. дождь 10/10 600 м
[]
+11.3 +10.7 96 +12 +12 1012.6 959.3 5 0
22 11.06 штиль 0
{1}
3300 м дождь 10/10 1500 м
[]
+11.2 +10.6 96 +10 +10 1012.2 958.9 0.8
23 11.06 СЗ 1 4000 м дождь 10/3 1350 м
[]
+11.1 +10.6 97 +12 +12 1011.7 958.4 2
00 12.06 З 1
{2}
14 км слаб. дождь 10/10 600 м
[]
+10.8 +10.3 97 +11 +11 1011.0 957.7 5 0
01 12.06 ЮЗ 1 6000 м слаб. дождь 10/10 240 м
[]
+10.8 +10.3 97 +10 +10 1011.8 958.5 2
02 12.06 ЮЗ 1 3200 м дождь 10/10 700 м
[]
+10.4 +9.8 96 +10 +10 1012.0 958.6 5
03 12.06 ЮЗ 1
{4}
3900 м слаб. дождь 10/10 1000 м
[]
+10.2 +9.7 97 +10 +10 1012.4 958.9 10 0
04 12.06 ЮЗ 1 9000 м слаб. дождь 10/9 240 м
[]
+9.4 +8.8 96 +9 +9 1013.9 960.2 3
05 12.06 штиль 0 50 км слаб. морось 10/9 1170 м
[]
+9.5 +8.6 94 +9 +9 1013.8 960.1 0.2
06 12.06 СВ 1
{3}
55 км 9/9 600 м
[]
+11.0 +8.9 87 +12 +12 1013.5 960.1 +9.3 +12.6 3 0
07 12.06 З 1-1
{1}
50 км н/о +12.6 +7.9 73 +14 +14 1013.3 960.2
08 12.06 ЮЗ 1-2
{2}
55 км н/о +13.9 +8.7 71 +15 +15 1013.1 960.2
09 12.06 ЮЗ 1-2
{3}
50 км н/о +15.3 +9.0 66 +16 +16 1012.5 959.9 0
10 12.06 ЮЗ 2-4
{4}
55 км н/о +15.6 +7.6 59 +16 +16 1012.8 960.2 0.2
11 12.06 ЮЗ 2-4
{4}
60 км н/о +17.3 +9.9 62 +18 +18 1012.2 960.0
12 12.06 ЮЗ 2-4
{4}
50 км н/о +18.0 +9.3 57 +19 +19 1011.9 959.8 0.2
13 12.06 ЮЗ 2-4
{4}
19 км н/о +19.1 +10.4 57 +21 +21 комфорт 1011.6 959.7
14 12.06 З 2-4
{5}
60 км н/о +18.9 +8.5 51 +20 +20 1011.6 959.7
15 12.06 З 3-4
{4}
60 км н/о +19.9 +8.6 48 +21 +21 комфорт 1011.3 959.6 0
16 12.06 ЮЗ 2-3
{4}
19 км 8/8 1500 м
[]
+20.6 +9.5 49 +23 +24 комфорт 1011.1 959.5
17 12.06 ЮЗ 2-3
{4}
60 км н/о +19.7 +7.7 46 +21 +21 комфорт 1011.4 959.6
18 12.06 ЮЗ 2
{6}
55 км н/о +19.0 +5.8 42 +20 +20 1011.9 959.9 +11.0 +20.7 0
19 12.06 З 1-1
{3}
60 км 9/9 2000 м
[]
+18.1 +7.2 49 +20 +20 1012.4 960.3
20 12.06 СЗ 1-1
{1}
50 км 9/9 2000 м
[]
+16.2 +9.6 65 +18 +18 1013.4 960.9
21 12.06 С 1
{3}
60 км 9/0 2000 м
[]
+14.0 +9.8 76 +15 +15 1014.3 961.4 0
22 12.06 Ю 1 60 км 10/10 1500 м
[]
+13.7 +9.9 78 +15 +15 1015.1 962.1
23 12.06 СЗ 1-1
{2}
60 км н/о +12.2 +9.4 83 +13 +13 1015.7 962.4
00 13.06 С 2-2
{4}
60 км 10/0 2000 м
[]
+10.9 +9.0 88 +9 +9 1016.0 962.4 0
01 13.06 СВ 1-2
{2}
55 км 9/9 2000 м
[]
+10.0 +8.3 89 +9 +9 1016.4 962.6
02 13.06 СВ 1-2
{2}
55 км н/о +9.0 +7.8 92 +8 +8 1016.6 962.6
03 13.06 СВ 2-2
{2}
30 км н/о +8.1 +7.2 94 +6 +6 1016.6 962.5 0
04 13.06 С 1-2
{2}
60 км н/о +8.6 +7.2 91 +8 +8 1016.8 962.7
05 13.06 СВ 1-2
{3}
55 км н/о +10.3 +8.1 86 +10 +10 1016.7 963.0
06 13.06 СВ 1
{3}
45 км н/о +13.7 +9.1 74 +14 +14 1016.2 963.1 +7.9 +18.9 0
07 13.06 В 1-1
{2}
35 км н/о +16.4 +8.9 61 +18 +18 1015.7 963.1
08 13.06 СЗ 1-2
{2}
50 км н/о +17.7 +9.3 58 +19 +19 1015.4 963.1
09 13.06 В 1-2
{2}
50 км н/о +19.5 +9.4 52 +22 +22 комфорт 1015.0 963.0 0
10 13.06 З 2-3
{3}
50 км н/о +20.1 +7.8 45 +22 +22 комфорт 1014.6 962.7
11 13.06 СЗ 1-3
{3}
55 км н/о +21.4 +6.5 38 +22 +22 комфорт 1013.8 962.2
12 13.06 З 1-2
{3}
40 км н/о +22.5 +8.6 41 +24 +24 комфорт 1013.2 961.8 0
13 13.06 Ю 1-3
{3}
19 км н/о +23.5 +9.8 42 +25 +25 комфорт 1012.7 961.5
14 13.06 З 2-4
{4}
55 км н/о +23.7 +7.3 35 +24 +24 комфорт 1012.6 961.4
15 13.06 З 2-3
{4}
25 км н/о +24.2 +9.4 39 +25 +25 комфорт 1012.0 961.0 0
16 13.06 ЮЗ 2-3
{3}
55 км н/о +24.3 +10.2 41 +25 +25 комфорт 1011.8 960.8
17 13.06 ЮЗ 1-2
{3}
45 км н/о +24.2 +10.1 41 +25 +25 комфорт 1011.5 960.5
18 13.06 З 1
{4}
55 км н/о +23.8 +9.4 40 +25 +25 комфорт 1011.6 960.5 +13.7 +24.5 0
19 13.06 СЗ 1-1
{2}
55 км н/о +21.0 +10.5 51 +24 +24 комфорт 1012.3 960.7
20 13.06 СВ 2-3
{3}
55 км н/о +15.3 +10.3 72 +15 +15 1014.2 961.5
21 13.06 С 1-1
{2}
55 км 10/0
[]
+15.3 +11.1 76 +17 +17 1014.8 962.1
22 13.06 СВ 1 50 км 10/10
[]
+14.6 +10.8 78 +15 +15 1015.1 962.3
23 13.06 СВ 1 35 км 9/9
[]
+13.7 +10.5 81 +14 +14 1014.9 961.9
00 14.06 СВ 1
{4}
55 км 8/0
[]
+13.7 +10.5 81 +14 +14 1015.2 962.2
01 14.06 ЮВ 1-1
{3}
55 км 10/10
[]
+14.2 +10.6 79 +15 +15 1013.7 960.9
02 14.06 штиль 0 55 км 10/10
[]
+14.1 +11.1 82 +14 +14 1014.4 961.5
03 14.06 СВ 2
{4}
40 км 10/0
[]
+13.6 +10.9 84 +13 +13 1014.5 961.5 0
04 14.06 В 1-2
{2}
50 км 10/10
[]
+13.7 +11.2 85 +14 +14 1014.2 961.3
05 14.06 В 1-1
{2}
45 км 10/10
[]
+13.9 +11.2 84 +14 +14 1014.4 961.5
06 14.06 Ю 1
{4}
19 км слаб. дождь 9/9 1000 м
[]
+14.4 +11.9 85 +15 +16 1015.9 963.0 +13.4 +24.6 0.2
07 14.06 СЗ 2 14 км слаб. дождь 10/10 1500 м
[]
+14.6 +12.5 87 +15 +15 1017.6 964.7 0.2
08 14.06 С 1 28 км слаб. дождь 9/1 1470 м
[]
+14.7 +12.7 88 +15 +21 1017.6 964.7 0.4
09 14.06 Ю 1
{4}
19 км слаб. дождь 9/9 1500 м
[]
+15.4 +13.2 87 +17 +18 1017.8 965.0 0.6 0
10 14.06 С 1-2
{2}
30 км 9/9
[]
+15.7 +13.5 87 +17 +19 1016.4 963.8 0.0
11 14.06 СЗ 2-4
{4}
35 км 10/10
[]
+16.1 +12.6 80 +16 +16 1015.8 963.2
12 14.06 СВ 1-3
{4}
35 км н/о +19.5 +14.5 73 +22 +22 комфорт 1013.7 961.9 0.0 0
13 14.06 СВ 3-4
{4}
30 км н/о +22.2 +14.1 60 +25 +25 комфорт 1011.5 960.2
14 14.06 СЗ 3-5
{5}
19 км н/о +22.3 +14.7 62 +26 +26 жарко 1010.6 959.4
15 14.06 СЗ 3-5
{5}
27 км н/о +22.5 +14.9 62 +26 +26 жарко 1009.7 958.6 0
16 14.06 СЗ 2-4
{5}
35 км н/о +23.1 +14.4 58 +27 +27 душно 1009.0 958.0
17 14.06 С 2-3
{5}
40 км н/о +22.4 +13.7 58 +26 +26 жарко 1008.5 957.4
18 14.06 СВ 2
{6}
18 км н/о +21.2 +14.6 66 +24 +24 комфорт 1007.9 956.7 +14.2 +23.7 0
19 14.06 СВ 1-2
{4}
50 км н/о +19.8 +14.4 71 +23 +23 комфорт 1007.9 956.4
20 14.06 ЮЗ 1-2
{3}
15 км н/о +17.7 +14.4 81 +19 +19 1009.4 957.5
21 14.06 СЗ 1-1
{3}
50 км н/о +17.2 +14.1 82 +19 +19 1010.6 958.5 0
22 14.06 СВ 1-2
{2}
26 км н/о +15.3 +13.5 89 +16 +16 1011.7 959.2
23 14.06 З 1 16 км н/о +15.8 +13.8 88 +16 +16 1012.7 960.3
00 15.06 ЮЗ 2
{9}
19 км 10/10 300 м
[]
+17.1 +15.1 88 +17 +17 1014.0 961.8 0
01 15.06 С 1 40 км слаб. дождь 10/10 300 м
[]
+15.8 +13.6 87 +16 +16 1014.8 962.3 0.6
02 15.06 СВ 1-1
{2}
60 км 10/10 1500 м
[]
+15.1 +13.5 90 +16 +16 1015.2 962.5 0.0
03 15.06 СЗ 1
{4}
55 км 10/10 1000 м
[]
+15.0 +13.5 91 +15 +15 1015.3 962.6 0.6 0
04 15.06 СЗ 1-1
{2}
35 км 10/10 1500 м
[]
+14.5 +13.7 95 +16 +16 1015.7 962.9 2
05 15.06 штиль 0-1
{2}
7000 м слаб. дождь 10/10 1500 м
[]
+14.6 +13.8 95 +14 +14 1016.4 963.6 0.4
06 15.06 ЮВ 1
{3}
19 км 9/9 100 м
[]
+14.8 +14.2 96 +16 +16 1016.7 963.9 +14.5 +21.0 3 0
07 15.06 Ю 1 13 км слаб. дождь 10/6 180 м
[]
+14.8 +14.2 96 +16 +17 1017.1 964.3 1
08 15.06 СЗ 1 45 км 9/9
[]
+17.0 +14.5 85 +18 +19 1016.7 964.3 0.2
09 15.06 ЮЗ 2-2
{2}
55 км 10/10 300 м
[]
+19.1 +15.2 78 +21 +21 комфорт 1016.1 964.1 2 0
10 15.06 ЮЗ 2 40 км н/о +20.1 +15.3 74 +23 +23 комфорт 1015.9 964.1
11 15.06 ЮЗ 1-2
{2}
55 км н/о +21.9 +16.6 72 +26 +26 душно 1015.1 963.7
12 15.06 С 1-2
{2}
45 км н/о +22.7 +15.5 64 +27 +27 душно 1013.9 962.6 0
13 15.06 С 1-3
{4}
35 км н/о +23.5 +14.8 58 +26 +26 жарко 1012.8 961.7
14 15.06 З 2 55 км 8/8
[]
+21.2 +14.6 66 +24 +27 комфорт 1013.4 961.9
15 15.06 ЮЗ 3
{22}
35 км слаб. дождь 10/10 300 м
[]
+14.7 +12.7 88 +14 +18 1018.7 965.7 3 0
16 15.06 Ю 2 4700 м слаб. дождь 10/4 800 м
[]
+14.2 +12.4 89 +14 +16 1021.2 968.0 2
17 15.06 Ю 1 29 км слаб. дождь 9/3 960 м
[]
+15.3 +12.2 82 +16 +17 1019.6 966.7 0.8
18 15.06 Ю 1
{6}
55 км н/о +16.1 +13.8 86 +17 +17 1019.1 966.4 +14.1 +23.7 3 0
19 15.06 ЮЗ 1 40 км 8/1 400 м
[]
+14.8 +13.0 89 +15 +15 1019.7 966.7
20 15.06 З 1-1
{2}
6000 м 9/9 1500 м
[]
+14.2 +12.4 89 +15 +15 1020.5 967.4
21 15.06 СЗ 1-1
{2}
3200 м дымка н/о +12.8 +11.9 94 +14 +14 1021.2 967.8 0
22 15.06 СВ 1-1
{2}
3400 м дымка н/о +11.6 +11.0 96 +12 +12 1021.7 968.0
23 15.06 С 1-1
{1}
13 км н/о +10.7 +10.1 96 +11 +11 1022.2 968.3
00 16.06 СВ 1-1
{1}
19 км н/о +10.5 +9.9 96 +10 +10 1022.4 968.4 0
01 16.06 СВ 1-2
{2}
14 км н/о +11.0 +10.5 97 +11 +11 1022.2 968.4
02 16.06 СВ 1-2
{2}
13 км 10/10 210 м
[]
+11.9 +11.6 98 +12 +12 1022.1 968.4
03 16.06 В 2-2
{2}
19 км 10/10 200 м
[]
+11.8 +11.3 97 +11 +11 1022.2 968.5 0
04 16.06 В 1-2
{2}
19 км 10/10 240 м
[]
+11.8 +11.2 96 +12 +12 1022.4 968.7
05 16.06 ЮВ 1-1
{1}
30 км 10/10 300 м
[]
+12.0 +11.1 94 +13 +13 1022.3 968.6
06 16.06 С 1
{3}
19 км 10/10 200 м
[]
+14.4 +11.9 85 +15 +15 1022.0 968.8 +10.2 +16.3 0
07 16.06 СВ 1-1
{2}
60 км н/о +15.6 +11.6 77 +17 +17 1021.8 968.8
08 16.06 ЮЗ 1-3
{3}
50 км н/о +17.3 +13.4 78 +19 +19 1021.0 968.4
09 16.06 С 1-3
{3}
40 км 8/8 600 м
[]
+19.0 +12.3 65 +21 +24 комфорт 1020.5 968.2 0
10 16.06 СВ 1-2
{3}
55 км н/о +18.9 +11.7 63 +21 +21 комфорт 1020.3 968.0
11 16.06 С 2-4
{4}
55 км 8/8 1200 м
[]
+20.9 +12.8 60 +24 +28 комфорт 1019.5 967.6
12 16.06 С 2-4
{4}
55 км 9/9 1000 м
[]
+21.8 +12.9 57 +24 +26 комфорт 1018.7 967.0 0
13 16.06 СЗ 3-5
{5}
60 км н/о +22.3 +12.5 54 +25 +25 комфорт 1018.4 966.8
14 16.06 СВ 2-4
{4}
60 км н/о +22.6 +11.6 50 +25 +25 комфорт 1018.2 966.6
15 16.06 С 3-4
{5}
45 км н/о +23.4 +11.8 48 +26 +26 жарко 1017.6 966.2 0
16 16.06 С 3-4
{5}
19 км н/о +23.3 +11.7 48 +26 +26 жарко 1017.2 965.8
17 16.06 С 3-5
{5}
55 км н/о +22.8 +10.2 45 +25 +25 комфорт 1017.2 965.7
18 16.06 С 2
{9}
40 км н/о +21.8 +11.8 53 +24 +24 комфорт 1017.3 965.6 +14.5 +23.6 0
19 16.06 С 2-4
{5}
35 км н/о +20.1 +11.3 57 +22 +22 комфорт 1017.5 965.5
20 16.06 С 1-2
{4}
60 км н/о +18.1 +11.2 64 +19 +19 1017.8 965.5
21 16.06 С 1-2
{2}
60 км н/о +17.5 +11.1 66 +19 +19 1018.2 965.7 0
22 16.06 С 1-2
{2}
55 км н/о +16.3 +11.4 73 +18 +18 1018.6 965.9
23 16.06 СЗ 1-1
{2}
4500 м дымка н/о +13.7 +11.2 85 +15 +15 1018.9 965.7
00 17.06 СВ 1-2
{2}
50 км н/о +13.0 +10.9 87 +13 +13 1019.1 965.8 0
01 17.06 СВ 1-2
{2}
40 км н/о +11.7 +10.6 93 +11 +11 1019.3 965.7
02 17.06 СВ 1-2
{2}
35 км н/о +11.0 +9.9 93 +11 +11 1019.4 965.7
03 17.06 СВ 1-1
{2}
35 км н/о +11.0 +10.1 94 +11 +11 1019.4 965.7 0.2 0
04 17.06 СВ 1-1
{1}
35 км н/о +10.9 +9.8 93 +11 +11 1019.3 965.6
05 17.06 С 1-1
{1}
19 км н/о +12.6 +11.0 90 +13 +13 1018.9 965.5
06 17.06 СВ 1
{2}
45 км н/о +16.7 +12.0 74 +18 +18 1018.0 965.4 +10.4 +21.8 0
07 17.06 СЗ 1-1
{1}
45 км н/о +18.3 +12.9 71 +20 +20 1017.3 965.1
08 17.06 ЮЗ 1-2
{2}
22 км н/о +20.5 +13.9 66 +24 +24 комфорт 1016.6 964.8
09 17.06 СЗ 1-2
{2}
45 км н/о +21.2 +14.1 64 +24 +24 комфорт 1016.5 964.8 0
10 17.06 ЮВ 1-2
{2}
45 км н/о +22.4 +14.5 61 +26 +26 жарко 1016.0 964.6
11 17.06 СЗ 2-3
{3}
19 км н/о +23.2 +15.5 62 +27 +27 душно 1015.7 964.4
12 17.06 ЮЗ 2-3
{4}
45 км н/о +24.4 +17.1 64 +28 +28 душно 1015.0 964.0 0
13 17.06 З 2-3
{4}
19 км н/о +25.4 +16.0 56 +29 +29 душно 1014.6 963.8
14 17.06 ЮЗ 2-3
{4}
19 км н/о +25.8 +16.1 55 +29 +29 душно 1014.4 963.6
15 17.06 З 1-2
{3}
50 км н/о +26.7 +13.4 44 +29 +29 жарко 1013.7 963.1 0
16 17.06 ЮЗ 2
{5}
19 км н/о +26.7 +13.4 44 +29 +29 жарко 1013.3 962.7
17 17.06 З 1-2
{3}
45 км н/о +26.6 +14.4 47 +29 +29 жарко 1013.3 962.7
18 17.06 З 1
{4}
55 км н/о +26.0 +14.8 50 +29 +29 душно 1013.4 962.7 +16.8 +27.1 0
19 17.06 СЗ 1-2
{2}
50 км н/о +23.6 +14.3 56 +26 +26 жарко 1014.2 963.0
20 17.06 СВ 2-2
{2}
35 км 9/9
[]
+18.8 +14.9 78 +21 +21 комфорт 1015.6 963.6
21 17.06 С 1-2
{2}
40 км н/о +18.3 +14.2 77 +20 +20 1015.6 963.5 0
22 17.06 СВ 2-3
{3}
40 км 8/8
[]
+17.6 +14.1 80 +18 +18 1016.0 963.7

 

Местоположение метеостанции Анси (Франция): широта 45.93 долгота 6.11 высота над уровнем моря 463 м.

В архиве по умолчанию представлена погода в Анси за последнюю неделю. Архивные данные за месяц целиком и за предыдущие месяцы, начиная с января 2011 года, Вы можете получить, выбрав интересующий диапазон дат из раскрывающегося списка и нажав кнопку "Ввод!".


*Определитесь, кто Вы:
робот инопланетянин человек

Внимание! Время в таблицах - всемирное. Для получения местного времени необходимо прибавить поправку, которая равна 1 ч.

Смотрите также архив погоды в соседних городах и на ближайших метеорологических станциях:

Погода в Женеве (Швейцария) (36 км)
Погода в Шамбери (Франция) (38 км)
Погода в Шанжене (Швейцария) (53 км)
Погода на Ла Доли (Швейцария) (56 км)
Погода в Шарбоньере (Швейцария) (60 км)
Погода в Амберьё-ан-Бюже (Франция) (61 км)
Погода в Бур-сен-Морисе (Франция) (62 км)
Погода в Бьере (Швейцария) (69 км)
Погода в Сальване (Швейцария) (73 км)
Погода в Эвьоне (Швейцария) (76 км)

Пояснения к столбцам:

Ветер - указаны скорость ветра в м/с - средняя за 10 мин, порывы в срок и между сроками (в фигурных скобках) и направление, откуда дует ветер: С - северный, СВ - северо-восточный, В - восточный, ЮВ - юго-восточный, Ю - южный, ЮЗ - юго-западный, З - западный, СЗ - северо-западный.
Видимость - горизонтальная дальность видимости в метрах или километрах. При видимости от 1 до 10 км при отсутствии осадков обычно наблюдается дымка, при ухудшении видимости до 1 км и менее - туман. В сухую погоду видимость может ухудшаться дымом, пылью или мглою.
Явления - указаны атмосферные явления, наблюдавшиеся в срок или в последний час перед сроком; фигурными скобками обозначены явления, наблюдавшиеся между сроками (за 1-3 часа до срока); квадратными скобками обозначены град или гололедные отложения с указанием их диаметра в мм.
Облачность - указаны через наклонную черту общая и нижняя облачность в баллах и высота нижней границы облаков в метрах; квадратными скобками обозначены формы облаков: Ci - перистые, Cs - перисто-слоистые, Cc - перисто-кучевые, Ac - высококучевые, As - высокослоистые, Sc - слоисто-кучевые, Ns - слоисто-дождевые, Cu - кучевые, Cb - кучево-дождевые. Подробнее классификацию облаков см. в Атласе облаков (PDF).
T - Температура воздуха - температура, измеренная на высоте 2 м над землей.
Td - Температура точки росы - температура, при понижении до которой содержащийся в воздухе водяной пар достигнет насыщения.
f - Относительная влажность воздуха - влажноcть воздуха, измеренная на высоте 2 м над землей.
Te - Эффективная температура - температура, которую ощущает одетый по сезону человек в тени. Характеристика душности погоды. При расчете учитывается влияние влажности воздуха и скорости ветра на теплоощущения человека.
Tes - Эффективная температура на солнце - температура, которую ощущает человек, с поправкой на солнечный нагрев. Характеристика знойности погоды. Зависит от высоты солнца над горизонтом, облачности и скорости ветра. Ночью, в пасмурную погоду, а также при ветре 12 м/с и более поправка равна нулю.
P - Атмосферное давление - приведенное к уровню моря атмосферное давление.
Po - Атмосферное давление - измеренное на уровне метеостанции атмосферное давление.
Tmin - Минимальная температура - минимум температуры воздуха на высоте 2 м над землей.
Tmax - Максимальная температура - максимум температуры воздуха на высоте 2 м над землей.
R - Количество осадков - Количество выпавших осадков за период времени, мм. При наведении курсора мыши на число - период времени, за который выпало указанное количество осадков.
R24 - Количество осадков - Количество выпавших осадков за 24 часа, мм.
S - Снежный покров - Высота снежного покрова, см. При наведении курсора мыши на число - состояние снежного покрова и степень покрытия местности в баллах.